Location: Angwan Shehu
(11.2514°N, 7.4613°E)
Time: 00:53:59
(UTC+00:00)

Tiros 1 - Pass Details

Date: 22 April 2021
Orbit: 630 x 664 km, 48.4° (Epoch: 06 May)

Event Time Altitude Azimuth Distance (km) Brightness Sun altitude
Rises 05:24:21 0° 218° (SW) 2,967 10.1 1.3°
Reaches altitude 10° 05:26:42 10° 218° (SW) 2,051 9.3 1.9°
Maximum altitude 05:31:27 85° 130° (SE) 652 7.3 3.0°
Drops below altitude 10° 05:36:08 10° 41° (NE) 2,029 10.7 4.2°
Sets 05:38:27 0° 41° (NE) 2,932 11.5 4.7°
